Temp
-5 -5 -5 -5 -5 -5 -5 -5 -6 -6 -5 -6 -6 -5 -5 -5 -5 -5 -5 -5 -5 -5 -5 -5 -5 -5 -6 -6 -6 -6 -6 -6 -6 -7 -7 -7 -7 -7 -7 -7 -8 -8 -8
-5 -5 -5 -5 -5 -5 -5 -5 -5 -5 -5 -5 -5 -5 -5 -5 -5 -4 -5 -4 -5 -5 -5 -5 -6 -6 -6 -6 -6 -6 -6 -6 -6 -6 -6 -7 -7 -7 -7 -7 -7 -8 -8
-5 -5 -5 -5 -5 -5 -5 -5 -5 -5 -5 -4 -4 -5 -4 -4 -4 -5 -5 -5 -5 -5 -5 -6 -6 -6 -6 -6 -6 -6 -6 -6 -6 -6 -6 -7 -7 -7 -7 -7 -8 -8 -8
-5 -5 -5 -4 -4 -4 -5 -5 -5 -4 -4 -4 -4 -4 -4 -4 -4 -5 -5 -5 -6 -6 -6 -6 -6 -6 -6 -6 -6 -6 -6 -6 -6 -6 -6 -6 -6 -7 -7 -7 -7 -7 -8
-4 -4 -4 -4 -4 -4 -4 -4 -4 -4 -4 -4 -4 -4 -4 -4 -5 -5 -5 -6 -6 -6 -6 -6 -6 -6 -6 -6 -6 -7 -6 -6 -6 -6 -6 -7 -6 -7 -7 -7 -7 -7 -7
-4 -4 -4 -4 -4 -4 -4 -4 -4 -4 -4 -4 -4 -4 -4 -5 -5 -5 -6 -6 -6 -6 -5 -5 -5 -6 -6 -6 -6 -6 -6 -6 -6 -6 -6 -6 -6 -6 -6 -7 -8 -7 -8
-3 -3 -4 -4 -4 -4 -4 -4 -4 -4 -4 -4 -4 -4 -5 -5 -5 -6 -5 -5 -5 -5 -6 -6 -6 -6 -6 -6 -7 -7 -6 -6 -6 -6 -7 -6 -6 -7 -7 -7 -7 -7 -7
-3 -4 -4 -3 -4 -4 -4 -4 -4 -4 -4 -4 -4 -5 -5 -5 -5 -5 -5 -5 -5 -5 -5 -5 -5 -6 -6 -6 -6 -6 -6 -6 -6 -6 -7 -6 -7 -6 -6 -6 -7 -6 -7
-4 -4 -4 -4 -4 -4 -4 -4 -4 -4 -4 -4 -5 -5 -5 -5 -5 -5 -5 -4 -4 -4 -4 -4 -5 -5 -5 -6 -6 -6 -5 -7 -6 -6 -6 -7 -6 -6 -6 -6 -6 -6 -7
-4 -4 -4 -4 -4 -3 -4 -4 -4 -4 -4 -4 -5 -5 -5 -5 -5 -5 -4 -4 -4 -4 -4 -4 -5 -5 -6 -6 -6 -7 -6 -6 -7 -7 -7 -7 -7 -6 -6 -6 -6 -5 -7
-3 -4 -4 -4 -4 -3 -3 -4 -4 -4 -4 -4 -4 -4 -4 -4 -4 -4 -4 -4 -4 -6 -5 -5 -5 -5 -6 -6 -5 -6 -6 -5 -6 -6 -6 -7 -7 -6 -6 -6 -6 -6 -6
-3 -4 -4 -4 -4 -3 -3 -3 -4 -4 -4 -4 -4 -4 -4 -4 -5 -4 -4 -4 -4 -4 -5 -4 -4 -5 -5 -5 -6 -5 -5 -5 -3 -6 -6 -6 -6 -6 -6 -6 -6 -6 -6
-3 -3 -4 -4 -3 -3 -3 -4 -4 -4 -4 -4 -4 -4 -4 -4 -4 -4 -4 -4 -4 -4 -4 -4 -4 -5 -5 -5 -6 -5 -4 -4 -5 -5 -5 -5 -6 -6 -5 -6 -6 -6 -6
-3 -4 -4 -3 -3 -3 -3 -3 -4 -4 -4 -4 -3 -3 -3 -3 -4 -4 -4 -4 -4 -4 -4 -4 -4 -4 -4 -5 -6 -5 -5 -5 -5 -6 -6 -6 -6 -5 -6 -5 -6 -6 -6
-3 -3 -4 -4 -3 -3 -4 -3 -3 -4 -3 -3 -3 -3 -4 -4 -4 -4 -3 -4 -4 -3 -4 -5 -5 -5 -5 -5 -5 -6 -5 -5 -5 -6 -6 -6 -5 -6 -6 -5 -5 -5 -6
-3 -3 -4 -4 -4 -4 -4 -4 -3 -3 -3 -3 -4 -4 -4 -4 -4 -4 -4 -4 -3 -4 -4 -4 -5 -5 -5 -4 -4 -4 -4 -5 -5 -5 -5 -6 -5 -5 -6 -5 -5 -6 -6
-4 -4 -4 -4 -4 -4 -4 -4 -3 -3 -3 -3 -3 -4 -4 -4 -4 -4 -4 -4 -4 -4 -4 -5 -4 -5 -5 -5 -4 -4 -5 -5 -5 -5 -5 -5 -6 -5 -5 -5 -5 -6 -6
-4 -3 -4 -4 -4 -4 -4 -4 -3 -3 -3 -3 -3 -3 -3 -3 -4 -4 -4 -3 -3 -4 -4 -6 -6 -5 -5 -5 -5 -4 -5 -5 -5 -5 -5 -5 -5 -5 -6 -5 -6 -5 -5
-4 -3 -3 -4 -4 -4 -4 -4 -3 -3 -3 -3 -3 -3 -3 -3 -3 -3 -4 -4 -4 -5 -6 -6 -6 -5 -5 -5 -5 -5 -5 -5 -5 -5 -5 -5 -5 -5 -5 -5 -5 -5 -5
-4 -4 -3 -4 -4 -4 -4 -4 -4 -3 -3 -3 -3 -3 -3 -3 -3 -3 -3 -4 -5 -5 -6 -5 -5 -5 -5 -5 -5 -5 -5 -5 -5 -5 -5 -5 -5 -5 -5 -5 -5 -5 -5
-4 -4 -4 -4 -4 -4 -4 -4 -4 -4 -4 -4 -3 -3 -3 -3 -3 -3 -4 -5 -5 -5 -5 -5 -6 -6 -6 -6 -6 -5 -5 -4 -5 -5 -5 -5 -5 -5 -5 -5 -5 -5 -5
-4 -4 -4 -4 -4 -4 -4 -4 -4 -4 -4 -4 -4 -4 -3 -3 -3 -4 -5 -5 -5 -4 -4 -4 -4 -6 -6 -6 -6 -6 -5 -5 -5 -5 -5 -5 -5 -5 -5 -5 -5 -5 -5
-4 -4 -4 -4 -4 -4 -4 -4 -4 -4 -4 -4 -4 -4 -4 -4 -4 -4 -5 -5 -5 -5 -4 -4 -4 -6 -6 -6 -6 -6 -6 -5 -5 -5 -6 -6 -5 -5 -5 -6 -5 -5 -5
-4 -4 -4 -5 -4 -4 -4 -5 -4 -4 -4 -4 -4 -4 -4 -4 -4 -5 -5 -5 -5 -5 -5 -3 -5 -6 -6 -6 -7 -6 -6 -6 -6 -6 -5 -5 -6 -5 -5 -5 -5 -6 -6
-4 -4 -5 -5 -5 -5 -5 -5 -5 -5 -5 -5 -5 -5 -5 -5 -5 -5 -5 -5 -5 -6 -6 -6 -6 -6 -7 -7 -6 -6 -6 -6 -6 -5 -6 -6 -6 -5 -5 -5 -6 -6 -6
-4 -4 -5 -5 -5 -5 -5 -5 -6 -6 -6 -6 -5 -5 -5 -5 -5 -5 -5 -5 -6 -6 -6 -6 -7 -7 -7 -7 -7 -6 -6 -6 -5 -5 -5 -6 -6 -6 -6 -6 -6 -6 -6
Height
5910 5910 5910 5911 5911 5911 5911 5911 5911 5912 5912 5912 5913 5913 5913 5913 5913 5912 5912 5912 5912 5912 5912 5912 5911 5911 5911 5911 5911 5910 5910 5910 5910 5910 5910 5910 5909 5909 5909 5908 5908 5908 5908
5912 5912 5912 5913 5913 5913 5913 5913 5914 5915 5915 5915 5915 5915 5915 5916 5916 5915 5915 5915 5916 5915 5915 5914 5914 5914 5913 5912 5912 5911 5911 5911 5911 5911 5911 5911 5911 5910 5910 5909 5908 5908 5909
5914 5914 5914 5915 5916 5915 5915 5916 5917 5918 5918 5917 5918 5918 5919 5919 5919 5919 5919 5919 5919 5919 5918 5917 5917 5916 5915 5914 5913 5912 5912 5912 5912 5912 5912 5912 5910 5909 5909 5911 5910 5909 5909
5916 5916 5915 5916 5918 5918 5918 5919 5921 5921 5921 5921 5921 5921 5922 5922 5923 5923 5923 5923 5922 5921 5920 5920 5919 5918 5917 5916 5916 5915 5914 5913 5912 5911 5911 5911 5910 5912 5911 5911 5910 5910 5909
5918 5917 5917 5918 5920 5922 5922 5922 5923 5924 5924 5924 5924 5925 5925 5926 5927 5927 5927 5926 5925 5923 5922 5922 5921 5920 5920 5919 5919 5917 5915 5914 5913 5912 5913 5911 5913 5910 5909 5910 5911 5910 5908
5920 5920 5920 5921 5923 5924 5925 5925 5925 5926 5927 5927 5928 5928 5929 5930 5930 5929 5929 5928 5926 5925 5925 5925 5925 5924 5923 5922 5920 5917 5915 5916 5916 5914 5913 5910 5908 5908 5908 5910 5909 5904 5906
5923 5923 5923 5924 5925 5927 5928 5928 5929 5930 5930 5930 5931 5932 5932 5932 5932 5931 5931 5929 5928 5927 5926 5925 5925 5925 5924 5922 5919 5917 5917 5918 5918 5917 5914 5910 5911 5910 5912 5909 5910 5904 5902
5925 5926 5926 5926 5928 5930 5930 5931 5932 5932 5933 5933 5934 5935 5934 5934 5933 5932 5931 5931 5932 5931 5931 5930 5928 5924 5923 5922 5920 5920 5920 5919 5918 5917 5914 5907 5908 5914 5911 5908 5908 5907 5905
5928 5928 5929 5929 5931 5932 5933 5934 5936 5936 5936 5936 5937 5937 5936 5936 5935 5933 5933 5934 5934 5933 5932 5932 5931 5928 5927 5925 5923 5926 5923 5918 5923 5920 5915 5910 5910 5914 5914 5910 5909 5907 5906
5931 5931 5931 5932 5933 5935 5936 5936 5938 5939 5939 5939 5939 5939 5938 5938 5936 5936 5937 5938 5937 5936 5935 5935 5931 5930 5928 5923 5923 5920 5920 5917 5917 5917 5915 5914 5913 5917 5915 5912 5909 5906 5903
5933 5933 5933 5934 5936 5937 5939 5940 5940 5940 5941 5942 5942 5941 5940 5940 5939 5939 5941 5942 5940 5935 5936 5937 5933 5932 5930 5925 5918 5916 5915 5919 5915 5906 5914 5916 5914 5917 5915 5912 5908 5905 5903
5935 5936 5936 5937 5938 5939 5941 5942 5943 5943 5943 5944 5944 5943 5943 5943 5943 5943 5943 5942 5939 5936 5935 5938 5938 5934 5932 5920 5916 5917 5923 5921 5914 5921 5919 5922 5919 5917 5915 5911 5906 5904 5901
5937 5938 5938 5939 5940 5941 5943 5944 5945 5946 5946 5946 5946 5946 5946 5946 5945 5944 5943 5940 5945 5944 5942 5937 5941 5935 5928 5923 5920 5922 5918 5885 5925 5921 5920 5920 5919 5917 5914 5910 5905 5901 5901
5938 5939 5940 5941 5941 5942 5943 5945 5946 5947 5948 5948 5948 5948 5948 5949 5948 5945 5940 5941 5939 5940 5944 5937 5938 5935 5931 5926 5927 5921 5928 5927 5925 5920 5922 5921 5920 5919 5914 5909 5905 5902 5899
5939 5940 5941 5943 5943 5944 5945 5946 5948 5949 5949 5950 5950 5950 5951 5950 5949 5947 5945 5945 5927 5942 5945 5934 5936 5936 5934 5932 5932 5931 5931 5929 5923 5924 5924 5922 5921 5917 5914 5909 5905 5902 5899
5941 5941 5942 5944 5945 5946 5947 5948 5948 5950 5951 5951 5952 5951 5951 5950 5949 5948 5948 5945 5944 5944 5940 5941 5939 5937 5938 5936 5931 5930 5930 5928 5928 5929 5927 5923 5919 5917 5913 5907 5904 5901 5898
5941 5942 5943 5944 5946 5947 5948 5949 5949 5950 5951 5952 5952 5951 5950 5947 5944 5945 5948 5952 5951 5947 5945 5944 5934 5937 5939 5938 5937 5932 5931 5931 5933 5928 5928 5923 5922 5917 5913 5909 5905 5902 5898
5942 5943 5944 5945 5946 5947 5949 5949 5950 5951 5952 5952 5952 5950 5948 5950 5947 5946 5947 5955 5951 5951 5944 5942 5939 5941 5943 5939 5936 5936 5932 5931 5931 5929 5928 5925 5921 5917 5913 5908 5904 5901 5897
5944 5944 5945 5946 5947 5948 5949 5950 5951 5951 5951 5951 5951 5949 5951 5951 5949 5949 5948 5950 5951 5948 5942 5937 5936 5941 5941 5944 5937 5936 5930 5931 5932 5930 5926 5921 5920 5917 5914 5910 5905 5899 5896
5944 5945 5946 5946 5947 5948 5949 5950 5950 5950 5951 5950 5949 5947 5951 5952 5949 5947 5947 5946 5943 5946 5944 5939 5940 5942 5936 5936 5934 5933 5930 5932 5931 5929 5927 5924 5919 5916 5912 5908 5904 5899 5894
5945 5946 5946 5947 5947 5948 5949 5950 5950 5949 5949 5949 5947 5945 5948 5949 5950 5948 5944 5942 5942 5945 5942 5938 5940 5942 5941 5936 5933 5934 5932 5932 5930 5926 5925 5922 5920 5917 5911 5906 5903 5899 5895
5946 5946 5946 5947 5947 5947 5947 5948 5948 5948 5948 5948 5947 5946 5944 5947 5948 5948 5948 5943 5944 5944 5949 5945 5936 5935 5935 5934 5934 5936 5933 5930 5927 5925 5922 5919 5917 5914 5910 5906 5902 5898 5894
5944 5946 5946 5947 5947 5947 5947 5946 5946 5946 5946 5946 5946 5945 5945 5945 5945 5946 5946 5944 5944 5944 5946 5945 5941 5937 5939 5937 5935 5934 5931 5927 5925 5924 5923 5921 5916 5913 5909 5906 5901 5897 5892
5942 5943 5944 5945 5946 5946 5946 5945 5944 5943 5944 5944 5944 5944 5944 5945 5945 5946 5946 5943 5940 5941 5941 5922 5938 5938 5936 5934 5932 5931 5927 5925 5923 5922 5919 5919 5916 5911 5907 5903 5900 5896 5891
5941 5942 5942 5943 5944 5944 5944 5943 5942 5942 5942 5943 5943 5942 5942 5942 5943 5944 5943 5942 5938 5938 5938 5936 5937 5936 5933 5930 5929 5926 5924 5922 5920 5917 5916 5912 5913 5908 5905 5901 5896 5892 5888
5938 5939 5940 5941 5941 5941 5941 5941 5941 5940 5940 5940 5941 5941 5941 5941 5940 5940 5940 5940 5940 5937 5935 5933 5931 5931 5930 5929 5927 5924 5922 5922 5915 5880 5911 5912 5910 5906 5902 5898 5893 5888 5884
Wind_Speed
9 9 9 10 11 11 11 13 15 16 17 16 17 17 16 14 14 13 13 13 12 11 10 9 11 11 9 9 9 9 8 7 6 5 4 4 4 4 4 3 4 2 3
9 8 9 11 11 10 10 13 15 17 16 17 16 15 14 14 14 12 12 11 10 11 11 12 12 12 12 11 10 9 9 6 6 5 4 6 7 7 6 7 5 3 6
8 9 10 12 11 10 11 13 16 17 17 17 16 14 14 14 14 13 12 12 12 12 12 12 12 11 10 9 10 9 8 9 8 8 8 9 8 6 7 10 9 8 8
9 12 13 13 12 12 14 15 17 18 16 15 15 14 15 14 13 12 11 12 12 12 10 9 9 7 7 7 10 9 6 6 6 7 8 8 12 10 8 9 12 11 11
12 15 17 15 14 15 15 15 15 16 15 14 15 14 15 13 11 10 11 11 12 13 15 14 15 13 10 8 10 9 6 4 7 10 10 5 5 10 11 13 14 16 15
14 15 17 16 15 14 14 14 14 14 14 14 14 15 13 11 11 11 11 12 12 13 16 18 19 17 17 17 15 13 9 5 9 11 12 9 8 8 9 11 26 20 16
13 14 15 15 14 12 13 14 15 14 13 13 13 12 11 10 11 12 13 13 13 13 13 12 15 17 15 13 16 18 15 15 13 14 13 13 16 11 16 27 20 24 7
12 12 12 13 11 10 11 12 15 14 13 12 11 10 10 10 11 12 12 13 15 14 14 13 13 13 14 14 12 14 15 14 13 13 11 10 20 15 19 19 24 22 18
12 12 12 12 12 10 10 12 12 11 11 11 10 9 9 10 12 11 12 13 14 15 15 15 16 14 16 15 15 19 16 12 14 13 16 21 21 21 20 22 18 20 20
9 10 12 10 12 11 10 12 11 9 9 8 8 8 9 11 11 11 12 15 15 16 15 17 15 18 16 11 18 15 15 10 12 15 16 17 19 19 21 23 23 24 27
7 8 10 11 11 12 10 10 10 9 7 7 7 7 8 9 9 10 13 14 15 12 16 18 17 16 20 21 5 22 17 19 26 13 29 24 20 20 21 24 25 24 22
6 6 7 10 11 11 9 8 7 7 6 6 7 7 8 9 10 10 13 12 11 11 14 18 17 16 16 17 19 25 21 18 23 17 21 19 23 24 25 26 25 23 23
3 5 6 7 10 10 9 7 5 4 4 4 5 5 6 8 10 11 11 8 13 14 17 17 14 16 14 8 12 18 19 10 16 20 21 15 24 27 27 25 24 24 22
3 4 6 7 8 8 7 5 5 3 2 2 3 5 5 7 7 8 7 6 9 10 11 16 18 17 15 18 22 22 15 17 18 26 24 25 27 28 28 27 24 24 23
2 5 5 6 7 8 7 5 4 3 1 1 2 3 4 5 5 4 6 11 13 13 14 19 16 15 13 13 8 13 12 15 24 23 23 24 26 32 31 28 23 23 26
2 4 4 5 5 6 6 4 4 3 2 2 4 4 4 5 4 5 7 10 9 11 13 14 13 11 10 9 10 11 15 19 21 22 24 26 29 31 35 32 25 24 26
4 4 3 5 4 4 4 5 4 4 3 4 4 5 6 8 8 4 3 9 11 9 11 13 11 14 8 7 7 10 15 16 18 23 23 26 28 29 34 33 27 25 26
5 4 3 4 3 3 3 5 5 5 5 5 6 7 9 9 12 9 4 6 12 11 11 12 12 14 12 6 4 6 11 14 17 20 22 23 27 31 32 34 34 29 28
4 3 2 2 2 2 4 4 5 5 5 7 9 11 9 8 14 13 8 6 10 12 13 13 15 16 15 8 5 6 11 12 15 19 23 28 29 30 32 33 34 34 30
2 2 2 2 1 2 4 5 6 6 6 7 9 11 10 4 11 12 9 10 10 12 13 17 19 15 19 13 8 9 9 9 13 18 20 23 28 32 34 36 34 35 33
1 0 1 1 1 2 5 7 8 8 10 10 10 12 10 9 9 10 9 12 12 12 12 13 14 15 16 13 9 6 8 9 10 18 20 23 25 28 32 36 36 34 33
3 3 3 4 3 4 6 8 11 10 11 11 12 12 14 11 9 7 7 9 12 14 14 16 12 17 20 17 11 10 10 12 16 19 24 26 28 29 31 34 36 36 35
5 5 6 7 7 7 8 10 11 12 11 11 11 11 10 9 8 6 8 10 13 16 17 7 16 15 15 16 11 12 12 14 14 18 20 24 28 29 30 31 34 35 37
7 7 9 11 11 10 11 12 12 11 10 10 9 8 7 6 6 6 7 11 15 15 14 12 15 15 15 15 13 12 12 14 17 22 24 23 26 29 30 32 33 34 35
12 10 11 13 14 13 12 10 8 7 6 7 6 6 5 5 4 5 7 10 14 14 11 11 11 11 12 13 14 13 12 14 15 19 24 29 28 29 29 31 34 35 34
16 12 10 12 13 11 7 6 5 4 4 6 6 5 6 6 7 8 10 11 9 10 11 12 13 14 15 15 15 12 13 14 16 16 25 27 28 29 31 33 35 36 36
Wind_Direction
92 101 90 80 83 95 113 121 118 108 107 107 104 103 101 101 99 94 89 82 76 75 70 66 62 62 60 64 62 62 61 67 67 64 45 27 28 34 19 22 351 227 223
96 105 99 87 87 99 117 117 113 110 113 106 105 105 105 104 99 95 89 84 77 66 59 54 49 48 45 40 43 41 38 36 36 27 15 8 3 356 353 352 351 291 285
97 100 97 88 89 104 115 113 108 108 108 106 107 106 108 105 99 94 87 78 72 68 59 54 51 50 47 38 34 31 22 21 21 18 12 2 339 333 342 335 331 324 298
99 100 96 91 96 114 115 109 104 104 107 108 105 109 108 105 102 92 85 82 75 67 65 60 52 52 49 32 22 9 2 1 1 357 3 355 353 321 351 319 314 312 302
99 100 96 97 107 115 114 107 103 105 107 107 109 110 105 99 97 91 83 86 80 74 73 66 63 59 48 38 29 14 13 8 -0 352 347 345 336 328 354 330 318 300 291
98 97 102 107 110 114 116 112 106 104 107 109 105 103 108 104 93 86 79 78 70 66 61 63 61 62 60 54 43 44 48 49 7 16 28 5 325 331 329 344 4 315 250
108 104 109 109 108 114 117 116 114 114 114 106 103 103 104 96 83 75 70 69 70 65 63 62 64 63 61 60 53 55 57 53 50 50 41 18 24 23 28 27 345 14 344
112 111 112 114 116 119 122 119 121 123 118 104 94 92 92 82 72 64 60 57 60 58 56 56 58 65 60 54 49 52 53 44 47 48 3 339 37 34 25 21 19 23 32
114 117 117 120 122 126 129 123 123 123 112 106 102 94 82 73 66 63 57 53 50 50 47 44 40 42 50 42 38 34 23 32 37 35 30 18 13 12 20 18 3 13 15
127 124 123 123 126 131 137 132 130 118 109 105 101 93 78 69 64 58 51 47 45 42 36 39 32 36 32 37 42 41 27 18 44 51 40 29 16 3 3 4 3 11 6
118 135 130 133 134 137 143 140 135 128 123 109 95 86 74 64 56 49 48 46 43 30 25 35 29 17 21 22 348 49 55 33 26 13 40 33 30 13 3 1 360 1 356
126 122 131 141 143 143 149 150 144 141 125 105 95 85 73 59 49 43 44 40 45 32 39 37 25 24 32 32 27 27 38 49 44 25 57 29 26 17 7 2 357 358 357
149 150 154 157 153 149 152 156 151 139 126 113 83 61 47 50 36 29 29 27 42 25 9 31 22 27 3 20 62 20 10 359 44 45 38 3 6 14 5 1 359 357 1
180 174 162 164 163 156 156 159 158 157 150 105 57 36 29 38 31 17 3 6 68 13 18 26 19 20 22 4 28 30 27 27 20 38 33 28 21 12 7 4 6 3 4
160 189 160 165 171 173 170 160 194 205 242 330 10 13 9 9 358 345 345 10 3 12 7 26 18 11 13 356 351 53 42 30 38 34 23 22 16 16 12 11 12 16 11
187 171 162 168 187 193 194 200 209 232 290 308 326 339 333 308 295 313 351 6 359 2 7 15 5 354 25 6 4 29 42 36 34 30 26 22 16 14 15 12 13 11 7
206 189 188 185 197 207 232 235 239 273 297 293 299 310 292 273 269 276 330 11 358 6 2 14 358 343 23 19 5 39 42 33 26 31 28 22 19 13 15 15 10 5 2
218 207 205 213 222 224 258 264 256 282 292 289 299 287 283 294 295 298 27 1 346 345 5 354 340 343 7 22 27 33 45 37 30 25 24 23 20 15 11 11 11 4 1
217 212 216 213 248 278 299 303 293 290 294 297 299 291 294 328 315 307 300 309 332 342 0 334 333 351 0 339 38 33 36 18 23 21 17 13 12 11 11 8 10 7 2
155 116 112 90 57 349 328 339 329 326 324 309 297 292 312 307 292 301 304 326 335 324 342 335 335 354 351 1 7 15 18 337 10 18 13 10 6 5 4 6 6 7 1
135 6 66 76 57 1 346 338 330 331 332 323 318 310 311 300 297 298 323 317 316 335 316 321 336 342 344 355 350 350 339 341 2 8 7 3 3 359 0 1 4 4 1
294 309 309 308 329 345 349 343 332 332 329 326 322 315 315 315 313 308 299 308 305 305 326 330 336 349 348 349 340 325 325 345 351 358 354 355 354 356 357 355 355 358 358
279 301 300 301 302 311 326 326 323 321 320 317 318 312 306 305 301 305 298 298 304 318 335 323 342 356 343 346 340 314 326 336 338 343 348 352 346 350 350 350 349 351 354
246 273 292 297 297 303 312 316 317 321 322 323 325 322 318 310 306 302 312 309 314 323 335 346 346 351 342 345 343 325 319 329 337 336 337 342 346 346 343 344 343 347 350
260 262 277 289 296 303 311 316 330 337 340 336 339 337 337 336 313 311 316 317 314 326 336 347 345 346 341 343 340 332 320 315 320 323 332 336 344 340 339 338 339 343 344
262 258 270 280 284 291 305 312 319 326 325 323 322 324 315 303 301 306 307 304 316 331 340 348 348 347 339 338 333 330 333 324 323 354 331 324 330 333 337 339 338 337 339